OBJECT D

Satellite information

Favourite Embed

Satellite Type and Status

UNKNOWNIN ORBIT

Key statistics

Satellite OBJECT D at a glance.

Uptime

2086

Days in orbit

Revolutions

≈ 15.0

Per day

Orbit

SSO

Sun Synchronous Orbit

Inclination

97.8

Latest

Satellite identification and parameters

Extended collection of information and parameters for OBJECT D.

Object identification

Identified? True

Debris? False

Object name: OBJECT D

International designator: 2019-093D

Object number (NORAD): 44882

Object ID (CCSDS): 44882

Country: TO BE DETERMINED/UNKNOWN (TBD)

Current information (Y/N): Y

RCS size: LARGE

Orbital parameters

Period: 95.998 minutes

Inclination: 97.8177 deg

SMA: 6944.918 km

Apoapsis: 575.881 km

Periapsis: 557.686 km

RAAN: 335.1527 deg

Eccentricy: 0.00130998

Argument of periapsis: 273.1132 deg

Mean anomaly: 86.8592 deg

Mean motion: 15.00037221 rev/day

Mean motion (dot): 0.00008502 rev/day2

B* drag term: 0.00068633325 1/REarth

Two-line elements (TLE)

Creation date: Sept. 4, 2025, 10:13 a.m.

Reference frame: TEME

Reference center: EARTH

Epoch: Sept. 4, 2025, 5:20 a.m. UTC

TLE line 0: 0 OBJECT D

TLE line 1: 1 44882U 19093D 25247.22249417 .00008502 00000-0 68633-3 0 9993

TLE line 2: 2 44882 97.8177 335.1527 0013100 273.1132 86.8592 15.00037221309660

Live tracking on map

Real-time ground track for satellite OBJECT D.

In-orbit conjunctions

There are no conjunctions computed for OBJECT D, at the moment. Check back to stay up to date, as we update our databases every day.

Go to all conjunctions

Associated space launch

On April 24, 2015, China and Brazil have signed the agreement for the construction of CBERS-4A. It's a third satellite in the continuity to the CBERS program, and a sixth CBERS satellite to be constructed. The CBERS satellites enhance and complement the existing remote sensing systems in an effort to improve our knowledge about the Earth environment and resources.

OBJECT D was lifted into orbit during the mission ‘Long March 4B | CBERS-4A’, on board a Long March 4B space rocket.

The launch took place on Dec. 20, 2019, 3:22 a.m. from Launch Complex 9.

For more information about the launch, click the button.

Launch to space Long March 4B | CBERS-4A
Long March 4B | CBERS-4A

Agency: N/A

Status: Launch Successful

Launch date: Dec. 20, 2019, 3:22 a.m. UTC

Rocket: Long March 4B

Launch pad: Launch Complex 9

Location: Taiyuan Satellite Launch Center, People's Republic of China

...

Latest news about this satellite

News about space launch
Long March 4B lofts CBERS-04A and Ethiopia’s first satellite


Newsletter sign-up

Weekly statistics, charts and insights to help you stay on top of the space industry.